Regional Weather Roundup
Issued by NWS Albany, NY

Home | Current Version | Previous Version | Text Only | Print | Product List | Glossary On
Versions: 1 2 3 4 5 6 7 8 9 10 11 12 13 14 15 16 17 18 19 20 21 22 23 24 25 26 27 28 29 30 31 32 33 34 35 36 37 38 39 40 41 42 43 44 45 46 47 48 49 50
000
ASUS41 KALY 240310
RWRALY

NEW YORK STATE HOURLY WEATHER ROUNDUP
NATIONAL WEATHER SERVICE ALBANY NY
1100 PM EDT MON OCT 23 2017

NOTE: "FAIR" INDICATES FEW OR NO CLOUDS BELOW 12,000 FEET WITH NO
SIGNIFICANT WEATHER AND/OR NO OBSTRUCTIONS TO VISIBILITY.

NYZ032-033-038>043-046>054-057>066-NYZ062>081-082-084-240400-
EAST


CITY           SKY/WX    TMP DP  RH WIND       PRES   REMARKS
ALBANY         CLOUDY    69  58  67 S10G17    30.01F
GLENS FALLS    CLOUDY    65  57  75 S7        30.02F
POUGHKEEPSIE   CLOUDY    69  62  78 SE9       30.02F
NEWBURGH       LGT RAIN  68  64  88 SE7       30.04F
MONTGOMERY     LGT RAIN  67  64  90 SE6       30.00F
WHITE PLAINS   CLOUDY    69  64  84 SE16G22   30.05F
ISLIP          CLOUDY    69  65  86 SE16      30.06F
NEW YORK CITY  CLOUDY    71  64  78 S18G32    30.02F
CENTRAL PARK   CLOUDY    69  64  84 MISG      30.06
$$

NYZ005>009-017-018-044>046-055-056-240400-
CENTRAL


CITY           SKY/WX    TMP DP  RH WIND       PRES   REMARKS
FULTON         CLOUDY    70  57  63 SE10G24   29.79F
SYRACUSE       NOT AVBL
ROME           CLOUDY    67  58  72 SE14      29.90F
ELMIRA         CLOUDY    71  59  65 S16G30    29.79F
BINGHAMTON     CLOUDY    64  56  75 S13G31    29.89F
MONTICELLO     LGT RAIN  65  61  87 SE15G23   30.01F
$$

NYZ026>034-041>043-087-240400-
NORTH


CITY           SKY/WX    TMP DP  RH WIND       PRES   REMARKS
WATERTOWN      CLOUDY    70  57  63 S15G29    29.80F
FORT DRUM      NOT AVBL
OGDENSBURG     FAIR      64  56  74 SE3       29.84F
MASSENA        PTCLDY    63  56  78 E7        29.89F
SARANAC LAKE   PTCLDY    62  54  74 S13       29.95F
PLATTSBURGH    CLEAR     65  54  67 S15G22    29.96F
$$

NYZ001>004-010>016-019>021-085-240400-
WEST


CITY           SKY/WX    TMP DP  RH WIND       PRES   REMARKS
NIAGARA FALLS  CLOUDY    72  54  53 S16G28    29.61F
BUFFALO        CLOUDY    71  53  52 S25G31    29.64F
DUNKIRK        LGT RAIN  60  57  89 S12G22    29.67F
JAMESTOWN      LGT RAIN  56  53  90 S9G20     29.69F
WELLSVILLE     CLOUDY    66  53  63 S14G29    29.75F
ROCHESTER      CLOUDY    72  56  57 S12G24    29.72S
PENN YAN       CLOUDY    70  53  54 S15G24    29.77F
$$

             KEY
       WCI = WIND CHILL INDEX
       VSB = VISIBILITY
       HX  = HEAT INDEX
$$



USA.gov is the U.S. government's official web portal to all federal, state and local government web resources and services.